PEGASUS DEB, 24227

Orbit data source: Space-Track

PEGASUS DEB, 24227 is space debris in LEO originally from a launch on Thu, 19 May 1994 UTC launched from the Air Force Western Test Range (AFWTR). Debris objects in space refer to the collection of defunct objects orbiting the Earth. Examples of debris include non-operational satellites, rocket bodies, and fragments generated from explosions, collisions, or faulty payload assembly.

Loading next visibility...
Identifier
24227, 1994-029LA
Orbit
LEO
Country
Flag of USUS
Related business
Manufacturer
Unknown
Mission
Spacecraft
Bus & Motor
Unknown
Mass
Unknown
Launch date (UTC)
1994-05-19 (32 years ago)
Launch vehicle
Unknown
Launch site
Air Force Western Test Range (AFWTR)
Object type
Payload
Rocket body
Debris
Shape & HBR
Unknown shape, 0.1 m
Radar Cross Section
Medium (>0.1 m² and <1 m²)

Expand to show TLE details & history
Last TLE update: 1 day ago

TLE from 1 day ago
0 PEGASUS DEB
1 24227U 94029LA  26173.47269944  .00000873  00000-0  10440-3 0  9995
2 24227  82.0393  75.7932 0134318 258.4582 277.3622 14.76872572602535
Epoch: 2026-06-22T11:20Z
TLE epoch observation values (Epoch: 2026-06-22T11:20:41.231Z)
Latitude
5.56954°
Longitude
174.18618°
Altitude
630.846 km
Speed
7.549 km/s
True Right ascension
17h 00m 03s
True Declination
5° 32' 09"
Sunlit
Object was in full shadow at epoch
Visualization orbit readout
Latitude
Unknown
Longitude
Unknown
Altitude
Unknown
Speed
Unknown
Apparent Right ascension
Unknown
Apparent Declination
Unknown
Sunlit
N/A
Visualization observer readout
Local Sidereal Time
23:54:09
Azimuth
Unknown
Elevation
Unknown
Doppler factor
Unknown
Orbital elements
Apogee altitude
730.476 km
Perigee altitude
542.044 km
Semi-major axis
7,014.397 km
Eccentricity
0.01343
Inclination
82.0393°
RAAN
75.7932°
Arg. of periapsis
258.4582°
True anomaly
275.83261°
Mean anomaly
277.3622°
Eccentric anomaly
276.59771°
Mean motion
3.69452 °/min
Orbital period
97.44 mins
BSTAR
0.0001044
Loading maneuver chart data...
Computing Atmospheric mass density...

Documentation

Showing up to 5 results
|